Wetterdaten: aktuell Samstag, 30.05.2020 15:00
Datum Zeit Temp. Feuchte Luftdruck Nieders. Wind Richtung Richtung Sonnenschein Solar Taupunkt Windchill Windben
30.05.2020 15:00 20,9 C 35 % 1021,5 hPa 0,0 l/m 1,4 km/h (1 Bft) N 349 5 min 884 W/m 4,9 C 20,9 C 14,5 km/h (3 Bft)
30.05.2020 14:55 20,7 C 34 % 1021,6 hPa 0,0 l/m 2,9 km/h (1 Bft) N-NW 342 5 min 881 W/m 4,3 C 20,7 C 17,7 km/h (3 Bft)
30.05.2020 14:50 20,6 C 34 % 1021,7 hPa 0,0 l/m 6,7 km/h (2 Bft) W 275 5 min 905 W/m 4,2 C 20,5 C 22,5 km/h (4 Bft)
30.05.2020 14:45 20,7 C 35 % 1021,7 hPa 0,0 l/m 2,3 km/h (1 Bft) O-NO 68 5 min 911 W/m 4,7 C 20,7 C 11,3 km/h (2 Bft)
30.05.2020 14:40 20,8 C 34 % 1021,7 hPa 0,0 l/m 2,9 km/h (1 Bft) O-SO 102 5 min 919 W/m 4,4 C 20,8 C 17,7 km/h (3 Bft)
30.05.2020 14:35 20,9 C 32 % 1021,8 hPa 0,0 l/m 0,5 km/h (0 Bft) NO 53 5 min 803 W/m 3,6 C 20,9 C 4,8 km/h (1 Bft)
30.05.2020 14:30 20,7 C 35 % 1021,9 hPa 0,0 l/m 1,2 km/h (1 Bft) O 100 5 min 838 W/m 4,7 C 20,7 C 6,4 km/h (2 Bft)
30.05.2020 14:25 20,3 C 34 % 1021,8 hPa 0,0 l/m 4,9 km/h (1 Bft) SO 132 5 min 954 W/m 3,9 C 20,3 C 20,9 km/h (4 Bft)
30.05.2020 14:20 20,5 C 32 % 1021,9 hPa 0,0 l/m 8,4 km/h (2 Bft) O-SO 111 5 min 946 W/m 3,2 C 19,7 C 24,1 km/h (4 Bft)
30.05.2020 14:15 20,9 C 31 % 1021,9 hPa 0,0 l/m 1,5 km/h (1 Bft) O-SO 106 5 min 981 W/m 3,1 C 20,9 C 17,7 km/h (3 Bft)
30.05.2020 14:10 20,8 C 32 % 1022,0 hPa 0,0 l/m 1,2 km/h (1 Bft) W-NW 299 5 min 977 W/m 3,5 C 20,8 C 14,5 km/h (3 Bft)
30.05.2020 14:05 20,7 C 31 % 1022,0 hPa 0,0 l/m 1,1 km/h (1 Bft) NO 36 5 min 977 W/m 3,0 C 20,7 C 14,5 km/h (3 Bft)
30.05.2020 14:00 20,6 C 32 % 1022,0 hPa 0,0 l/m 0,6 km/h (0 Bft) N-NW 348 5 min 967 W/m 3,3 C 20,6 C 14,5 km/h (3 Bft)
30.05.2020 13:55 20,4 C 32 % 1022,1 hPa 0,0 l/m 2,3 km/h (1 Bft) NO 44 5 min 944 W/m 3,2 C 20,4 C 11,3 km/h (2 Bft)
30.05.2020 13:50 20,4 C 32 % 1022,0 hPa 0,0 l/m 3,0 km/h (1 Bft) O 99 5 min 930 W/m 3,2 C 20,4 C 12,9 km/h (3 Bft)
30.05.2020 13:45 20,4 C 32 % 1022,1 hPa 0,0 l/m 1,4 km/h (1 Bft) O 94 5 min 960 W/m 3,2 C 20,4 C 9,7 km/h (2 Bft)
30.05.2020 13:40 20,4 C 32 % 1022,1 hPa 0,0 l/m 3,0 km/h (1 Bft) O-NO 69 5 min 954 W/m 3,2 C 20,4 C 14,5 km/h (3 Bft)
30.05.2020 13:35 20,5 C 33 % 1022,1 hPa 0,0 l/m 1,4 km/h (1 Bft) NO 49 5 min 947 W/m 3,7 C 20,5 C 14,5 km/h (3 Bft)
30.05.2020 13:30 20,6 C 34 % 1022,0 hPa 0,0 l/m 3,3 km/h (1 Bft) NO 45 5 min 949 W/m 4,2 C 20,6 C 16,1 km/h (3 Bft)
30.05.2020 13:25 20,8 C 33 % 1022,1 hPa 0,0 l/m 1,9 km/h (1 Bft) O-NO 58 5 min 949 W/m 3,9 C 20,8 C 9,7 km/h (2 Bft)
30.05.2020 13:20 20,7 C 33 % 1022,2 hPa 0,0 l/m 2,6 km/h (1 Bft) N-NO 32 5 min 944 W/m 3,9 C 20,7 C 24,1 km/h (4 Bft)
30.05.2020 13:15 20,6 C 35 % 1022,2 hPa 0,0 l/m 1,6 km/h (1 Bft) N-NW 338 5 min 944 W/m 4,6 C 20,6 C 20,9 km/h (4 Bft)
30.05.2020 13:10 20,6 C 35 % 1022,4 hPa 0,0 l/m 3,0 km/h (1 Bft) NW 306 5 min 946 W/m 4,6 C 20,6 C 19,3 km/h (3 Bft)
30.05.2020 13:05 20,6 C 34 % 1022,5 hPa 0,0 l/m 2,0 km/h (1 Bft) W-NW 293 5 min 944 W/m 4,2 C 20,6 C 16,1 km/h (3 Bft)
30.05.2020 13:00 20,6 C 35 % 1022,5 hPa 0,0 l/m 1,6 km/h (1 Bft) N-NO 20 5 min 939 W/m 4,6 C 20,6 C 19,3 km/h (3 Bft)
30.05.2020 12:55 20,6 C 35 % 1022,6 hPa 0,0 l/m 1,5 km/h (1 Bft) NO 46 5 min 935 W/m 4,6 C 20,6 C 8,0 km/h (2 Bft)
30.05.2020 12:50 20,3 C 36 % 1022,5 hPa 0,0 l/m 1,2 km/h (1 Bft) W-SW 241 5 min 925 W/m 4,7 C 20,3 C 14,5 km/h (3 Bft)
30.05.2020 12:45 20,2 C 36 % 1022,7 hPa 0,0 l/m 0,9 km/h (0 Bft) NO 49 5 min 919 W/m 4,7 C 20,2 C 8,0 km/h (2 Bft)
30.05.2020 12:40 20,0 C 37 % 1022,7 hPa 0,0 l/m 1,6 km/h (1 Bft) O-NO 72 5 min 918 W/m 4,9 C 20,0 C 14,5 km/h (3 Bft)
30.05.2020 12:35 19,8 C 37 % 1022,7 hPa 0,0 l/m 2,1 km/h (1 Bft) O 80 5 min 912 W/m 4,7 C 19,8 C 14,5 km/h (3 Bft)
30.05.2020 12:30 19,6 C 37 % 1022,7 hPa 0,0 l/m 0,8 km/h (0 Bft) NO 49 5 min 907 W/m 4,5 C 19,6 C 8,0 km/h (2 Bft)
30.05.2020 12:25 19,4 C 37 % 1022,7 hPa 0,0 l/m 2,6 km/h (1 Bft) O-NO 59 5 min 907 W/m 4,3 C 19,4 C 11,3 km/h (2 Bft)
30.05.2020 12:20 19,4 C 37 % 1022,6 hPa 0,0 l/m 3,3 km/h (1 Bft) NO 43 5 min 900 W/m 4,3 C 19,4 C 16,1 km/h (3 Bft)
30.05.2020 12:15 19,6 C 37 % 1022,8 hPa 0,0 l/m 1,8 km/h (1 Bft) N-NO 28 5 min 893 W/m 4,5 C 19,6 C 9,7 km/h (2 Bft)
30.05.2020 12:10 19,6 C 37 % 1022,9 hPa 0,0 l/m 2,0 km/h (1 Bft) O-SO 108 5 min 889 W/m 4,5 C 19,6 C 14,5 km/h (3 Bft)
30.05.2020 12:05 19,6 C 37 % 1022,8 hPa 0,0 l/m 2,5 km/h (1 Bft) N-NO 28 5 min 889 W/m 4,5 C 19,6 C 16,1 km/h (3 Bft)
30.05.2020 12:00 19,4 C 38 % 1022,8 hPa 0,0 l/m 1,9 km/h (1 Bft) N-NO 30 5 min 886 W/m 4,7 C 19,4 C 20,9 km/h (4 Bft)
30.05.2020 11:55 19,3 C 38 % 1022,8 hPa 0,0 l/m 2,3 km/h (1 Bft) O 94 5 min 879 W/m 4,6 C 19,3 C 16,1 km/h (3 Bft)
30.05.2020 11:50 19,4 C 38 % 1022,8 hPa 0,0 l/m 2,8 km/h (1 Bft) NO 44 5 min 879 W/m 4,7 C 19,4 C 17,7 km/h (3 Bft)
30.05.2020 11:45 19,4 C 39 % 1022,9 hPa 0,0 l/m 3,9 km/h (1 Bft) N-NO 30 5 min 867 W/m 5,1 C 19,4 C 22,5 km/h (4 Bft)
30.05.2020 11:40 19,4 C 38 % 1022,9 hPa 0,0 l/m 1,6 km/h (1 Bft) W-NW 292 5 min 865 W/m 4,7 C 19,4 C 12,9 km/h (3 Bft)
30.05.2020 11:35 19,4 C 38 % 1023,0 hPa 0,0 l/m 1,1 km/h (1 Bft) NW 312 5 min 860 W/m 4,7 C 19,4 C 12,9 km/h (3 Bft)
30.05.2020 11:30 19,2 C 39 % 1022,9 hPa 0,0 l/m 2,1 km/h (1 Bft) O-NO 76 5 min 863 W/m 4,9 C 19,2 C 14,5 km/h (3 Bft)
30.05.2020 11:25 18,9 C 39 % 1023,0 hPa 0,0 l/m 1,4 km/h (1 Bft) N-NO 17 5 min 860 W/m 4,6 C 18,9 C 9,7 km/h (2 Bft)
30.05.2020 11:20 18,7 C 39 % 1023,0 hPa 0,0 l/m 4,9 km/h (1 Bft) NO 49 5 min 860 W/m 4,5 C 18,7 C 17,7 km/h (3 Bft)
30.05.2020 11:15 18,6 C 40 % 1023,0 hPa 0,0 l/m 5,5 km/h (2 Bft) SO 134 5 min 842 W/m 4,7 C 18,6 C 17,7 km/h (3 Bft)
30.05.2020 11:10 18,7 C 37 % 1023,2 hPa 0,0 l/m 5,2 km/h (1 Bft) NO 36 5 min 828 W/m 3,7 C 18,7 C 22,5 km/h (4 Bft)
30.05.2020 11:05 18,8 C 38 % 1023,2 hPa 0,0 l/m 2,1 km/h (1 Bft) O-NO 71 5 min 816 W/m 4,2 C 18,8 C 16,1 km/h (3 Bft)
30.05.2020 11:00 18,8 C 37 % 1023,3 hPa 0,0 l/m 5,0 km/h (1 Bft) NO 34 5 min 807 W/m 3,8 C 18,8 C 20,9 km/h (4 Bft)
30.05.2020 10:55 18,9 C 37 % 1023,2 hPa 0,0 l/m 4,0 km/h (1 Bft) O-SO 107 5 min 800 W/m 3,9 C 18,9 C 16,1 km/h (3 Bft)
30.05.2020 10:50 19,1 C 37 % 1023,2 hPa 0,0 l/m 3,1 km/h (1 Bft) NO 56 5 min 784 W/m 4,1 C 19,1 C 14,5 km/h (3 Bft)
30.05.2020 10:45 19,3 C 37 % 1023,3 hPa 0,0 l/m 0,3 km/h (0 Bft) NO 53 5 min 780 W/m 4,2 C 19,3 C 6,4 km/h (2 Bft)
30.05.2020 10:40 19,1 C 38 % 1023,1 hPa 0,0 l/m 0,3 km/h (0 Bft) SW 215 5 min 772 W/m 4,4 C 19,1 C 6,4 km/h (2 Bft)
30.05.2020 10:35 18,8 C 39 % 1023,3 hPa 0,0 l/m 1,8 km/h (1 Bft) W-NW 299 5 min 763 W/m 4,6 C 18,8 C 12,9 km/h (3 Bft)
30.05.2020 10:30 18,7 C 39 % 1023,4 hPa 0,0 l/m 1,1 km/h (1 Bft) W-NW 286 5 min 752 W/m 4,5 C 18,7 C 16,1 km/h (3 Bft)
30.05.2020 10:25 18,6 C 38 % 1023,4 hPa 0,0 l/m 0,4 km/h (0 Bft) N-NO 31 5 min 740 W/m 4,0 C 18,6 C 6,4 km/h (2 Bft)
30.05.2020 10:20 18,3 C 41 % 1023,3 hPa 0,0 l/m 0,8 km/h (0 Bft) NO 40 5 min 733 W/m 4,8 C 18,3 C 6,4 km/h (2 Bft)
30.05.2020 10:15 18,1 C 41 % 1023,3 hPa 0,0 l/m 0,2 km/h (0 Bft) O-NO 57 5 min 724 W/m 4,6 C 18,1 C 3,2 km/h (1 Bft)
30.05.2020 10:10 17,7 C 41 % 1023,4 hPa 0,0 l/m 0,5 km/h (0 Bft) O-NO 57 5 min 729 W/m 4,3 C 17,7 C 4,8 km/h (1 Bft)
30.05.2020 10:05 17,1 C 42 % 1023,4 hPa 0,0 l/m 1,9 km/h (1 Bft) O-NO 57 5 min 849 W/m 4,1 C 17,1 C 17,7 km/h (3 Bft)
30.05.2020 10:00 17,1 C 41 % 1023,3 hPa 0,0 l/m 0,6 km/h (0 Bft) NO 51 5 min 336 W/m 3,7 C 17,1 C 6,4 km/h (2 Bft)
30.05.2020 09:55 17,3 C 45 % 1023,2 hPa 0,0 l/m 0,0 km/h (0 Bft) N 355 5 min 318 W/m 5,3 C 17,3 C 1,6 km/h (1 Bft)
30.05.2020 09:50 17,4 C 45 % 1023,2 hPa 0,0 l/m 0,0 km/h (0 Bft) N-NO 30 5 min 297 W/m 5,3 C 17,4 C 0,0 km/h (0 Bft)
30.05.2020 09:45 17,4 C 43 % 1023,3 hPa 0,0 l/m 0,3 km/h (0 Bft) O-NO 66 5 min 306 W/m 4,7 C 17,4 C 6,4 km/h (2 Bft)
30.05.2020 09:40 17,7 C 43 % 1023,2 hPa 0,0 l/m 0,8 km/h (0 Bft) NO 45 5 min 306 W/m 5,0 C 17,7 C 6,4 km/h (2 Bft)
30.05.2020 09:35 18,1 C 42 % 1023,3 hPa 0,0 l/m 0,6 km/h (0 Bft) NO 46 5 min 308 W/m 5,0 C 18,1 C 8,0 km/h (2 Bft)
30.05.2020 09:30 18,3 C 43 % 1023,3 hPa 0,0 l/m 0,7 km/h (0 Bft) O 81 5 min 327 W/m 5,5 C 18,3 C 6,4 km/h (2 Bft)
30.05.2020 09:25 18,2 C 44 % 1023,2 hPa 0,0 l/m 0,2 km/h (0 Bft) O-SO 103 5 min 468 W/m 5,7 C 18,2 C 4,8 km/h (1 Bft)
30.05.2020 09:20 18,1 C 44 % 1023,2 hPa 0,0 l/m 0,0 km/h (0 Bft) O-SO 109 5 min 417 W/m 5,7 C 18,1 C 1,6 km/h (1 Bft)
30.05.2020 09:15 18,1 C 45 % 1023,2 hPa 0,0 l/m 0,1 km/h (0 Bft) N-NW 348 5 min 432 W/m 6,0 C 18,1 C 3,2 km/h (1 Bft)
30.05.2020 09:10 17,8 C 46 % 1023,2 hPa 0,0 l/m 0,3 km/h (0 Bft) O 82 5 min 401 W/m 6,0 C 17,8 C 4,8 km/h (1 Bft)
30.05.2020 09:05 17,3 C 51 % 1023,2 hPa 0,0 l/m 0,0 km/h (0 Bft) NW 319 5 min 561 W/m 7,1 C 17,3 C 1,6 km/h (1 Bft)
30.05.2020 09:00 17,1 C 53 % 1023,2 hPa 0,0 l/m 0,7 km/h (0 Bft) NW 314 5 min 545 W/m 7,4 C 17,1 C 6,4 km/h (2 Bft)
30.05.2020 08:55 16,8 C 56 % 1023,3 hPa 0,0 l/m 0,0 km/h (0 Bft) N-NW 328 5 min 524 W/m 8,0 C 16,8 C 0,0 km/h (0 Bft)
30.05.2020 08:50 16,2 C 60 % 1023,3 hPa 0,0 l/m 0,0 km/h (0 Bft) N-NW 329 5 min 513 W/m 8,4 C 16,2 C 0,0 km/h (0 Bft)
30.05.2020 08:45 15,6 C 61 % 1023,3 hPa 0,0 l/m 0,0 km/h (0 Bft) N-NW 329 5 min 497 W/m 8,1 C 15,6 C 0,0 km/h (0 Bft)
30.05.2020 08:40 15,1 C 60 % 1023,2 hPa 0,0 l/m 0,1 km/h (0 Bft) N-NW 329 5 min 480 W/m 7,4 C 15,1 C 3,2 km/h (1 Bft)
30.05.2020 08:35 14,7 C 62 % 1023,3 hPa 0,0 l/m 0,0 km/h (0 Bft) NW 317 5 min 462 W/m 7,5 C 14,7 C 0,0 km/h (0 Bft)
30.05.2020 08:30 14,3 C 63 % 1023,3 hPa 0,0 l/m 0,2 km/h (0 Bft) NW 317 5 min 445 W/m 7,4 C 14,3 C 3,2 km/h (1 Bft)
30.05.2020 08:25 13,9 C 64 % 1023,3 hPa 0,0 l/m 0,0 km/h (0 Bft) NW 321 5 min 432 W/m 7,2 C 13,9 C 0,0 km/h (0 Bft)
30.05.2020 08:20 13,7 C 64 % 1023,4 hPa 0,0 l/m 0,0 km/h (0 Bft) NW 321 5 min 406 W/m 7,0 C 13,7 C 0,0 km/h (0 Bft)
30.05.2020 08:15 13,4 C 65 % 1023,3 hPa 0,0 l/m 0,0 km/h (0 Bft) NW 320 0 min 121 W/m 7,0 C 13,4 C 0,0 km/h (0 Bft)
30.05.2020 08:10 13,2 C 66 % 1023,4 hPa 0,0 l/m 0,0 km/h (0 Bft) NW 320 0 min 54 W/m 7,0 C 13,2 C 0,0 km/h (0 Bft)
30.05.2020 08:05 12,9 C 66 % 1023,4 hPa 0,0 l/m 0,7 km/h (0 Bft) NW 320 0 min 46 W/m 6,7 C 12,9 C 4,8 km/h (1 Bft)
30.05.2020 08:00 12,6 C 67 % 1023,3 hPa 0,0 l/m 0,0 km/h (0 Bft) NW 322 0 min 47 W/m 6,6 C 12,6 C 0,0 km/h (0 Bft)
30.05.2020 07:55 12,2 C 68 % 1023,4 hPa 0,0 l/m 0,5 km/h (0 Bft) NW 323 0 min 42 W/m 6,5 C 12,2 C 8,0 km/h (2 Bft)
30.05.2020 07:50 11,8 C 70 % 1023,4 hPa 0,0 l/m 0,0 km/h (0 Bft) NW 320 0 min 42 W/m 6,5 C 11,8 C 0,0 km/h (0 Bft)
30.05.2020 07:45 11,5 C 70 % 1023,4 hPa 0,0 l/m 0,1 km/h (0 Bft) NW 321 0 min 40 W/m 6,2 C 11,5 C 4,8 km/h (1 Bft)
30.05.2020 07:40 11,2 C 72 % 1023,4 hPa 0,0 l/m 0,2 km/h (0 Bft) NW 321 0 min 39 W/m 6,3 C 11,2 C 3,2 km/h (1 Bft)
30.05.2020 07:35 10,9 C 73 % 1023,4 hPa 0,0 l/m 0,0 km/h (0 Bft) O-NO 76 0 min 46 W/m 6,3 C 10,9 C 0,0 km/h (0 Bft)
30.05.2020 07:30 10,6 C 74 % 1023,4 hPa 0,0 l/m 0,0 km/h (0 Bft) O 92 0 min 37 W/m 6,2 C 10,6 C 0,0 km/h (0 Bft)
30.05.2020 07:25 10,3 C 74 % 1023,4 hPa 0,0 l/m 0,0 km/h (0 Bft) O-SO 103 0 min 35 W/m 5,9 C 10,3 C 0,0 km/h (0 Bft)
30.05.2020 07:20 10,1 C 75 % 1023,4 hPa 0,0 l/m 0,0 km/h (0 Bft) SO 126 0 min 35 W/m 5,9 C 10,1 C 0,0 km/h (0 Bft)
30.05.2020 07:15 9,8 C 75 % 1023,4 hPa 0,0 l/m 0,0 km/h (0 Bft) SO 126 0 min 33 W/m 5,6 C 9,8 C 0,0 km/h (0 Bft)
30.05.2020 07:10 9,5 C 76 % 1023,4 hPa 0,0 l/m 0,0 km/h (0 Bft) SO 125 0 min 32 W/m 5,5 C 9,5 C 0,0 km/h (0 Bft)
30.05.2020 07:05 9,2 C 77 % 1023,4 hPa 0,0 l/m 0,0 km/h (0 Bft) SO 126 0 min 30 W/m 5,4 C 9,2 C 0,0 km/h (0 Bft)
30.05.2020 07:00 9,0 C 77 % 1023,4 hPa 0,0 l/m 0,0 km/h (0 Bft) SO 125 0 min 35 W/m 5,2 C 9,0 C 0,0 km/h (0 Bft)
30.05.2020 06:55 8,8 C 78 % 1023,3 hPa 0,0 l/m 0,0 km/h (0 Bft) SO 126 0 min 28 W/m 5,2 C 8,8 C 0,0 km/h (0 Bft)
30.05.2020 06:50 8,6 C 79 % 1023,4 hPa 0,0 l/m 0,0 km/h (0 Bft) SO 125 0 min 26 W/m 5,2 C 8,6 C 0,0 km/h (0 Bft)
30.05.2020 06:45 8,3 C 80 % 1023,3 hPa 0,0 l/m 0,0 km/h (0 Bft) SO 126 0 min 26 W/m 5,1 C 8,3 C 0,0 km/h (0 Bft)
30.05.2020 06:40 8,2 C 81 % 1023,3 hPa 0,0 l/m 0,0 km/h (0 Bft) SO 126 0 min 25 W/m 5,1 C 8,2 C 0,0 km/h (0 Bft)
30.05.2020 06:35 8,2 C 81 % 1023,3 hPa 0,0 l/m 0,0 km/h (0 Bft) SO 125 0 min 23 W/m 5,1 C 8,2 C 0,0 km/h (0 Bft)
30.05.2020 06:30 8,2 C 82 % 1023,3 hPa 0,0 l/m 0,0 km/h (0 Bft) SO 126 0 min 23 W/m 5,3 C 8,2 C 0,0 km/h (0 Bft)
30.05.2020 06:25 8,2 C 82 % 1023,3 hPa 0,0 l/m 0,0 km/h (0 Bft) SO 125 0 min 21 W/m 5,3 C 8,2 C 0,0 km/h (0 Bft)
30.05.2020 06:20 8,1 C 81 % 1023,3 hPa 0,0 l/m 0,0 km/h (0 Bft) SO 126 0 min 19 W/m 5,0 C 8,1 C 0,0 km/h (0 Bft)
30.05.2020 06:15 8,1 C 81 % 1023,3 hPa 0,0 l/m 0,0 km/h (0 Bft) SO 126 0 min 19 W/m 5,0 C 8,1 C 0,0 km/h (0 Bft)
30.05.2020 06:10 7,9 C 82 % 1023,3 hPa 0,0 l/m 0,0 km/h (0 Bft) SO 126 0 min 18 W/m 5,0 C 7,9 C 0,0 km/h (0 Bft)
30.05.2020 06:05 7,8 C 82 % 1023,3 hPa 0,0 l/m 0,0 km/h (0 Bft) SO 126 0 min 18 W/m 4,9 C 7,8 C 0,0 km/h (0 Bft)
30.05.2020 05:55 7,5 C 84 % 1023,3 hPa 0,0 l/m 0,0 km/h (0 Bft) N 0 0 min 18 W/m 5,0 C 7,5 C 0,0 km/h (0 Bft)
30.05.2020 05:50 7,3 C 84 % 1023,2 hPa 0,0 l/m 0,0 km/h (0 Bft) N 0 0 min 19 W/m 4,8 C 7,3 C 0,0 km/h (0 Bft)
30.05.2020 05:45 7,2 C 83 % 1023,2 hPa 0,0 l/m 0,0 km/h (0 Bft) N 0 0 min 18 W/m 4,5 C 7,2 C 0,0 km/h (0 Bft)
30.05.2020 05:40 7,2 C 83 % 1023,2 hPa 0,0 l/m 0,0 km/h (0 Bft) N 0 0 min 14 W/m 4,5 C 7,2 C 0,0 km/h (0 Bft)
30.05.2020 05:35 7,1 C 83 % 1023,3 hPa 0,0 l/m 0,0 km/h (0 Bft) N 0 0 min 11 W/m 4,4 C 7,1 C 0,0 km/h (0 Bft)
30.05.2020 05:30 7,0 C 83 % 1023,2 hPa 0,0 l/m 0,0 km/h (0 Bft) N 0 0 min 7 W/m 4,3 C 7,0 C 0,0 km/h (0 Bft)
30.05.2020 05:25 6,9 C 83 % 1023,3 hPa 0,0 l/m 0,0 km/h (0 Bft) N 0 0 min 5 W/m 4,2 C 6,9 C 0,0 km/h (0 Bft)
30.05.2020 05:20 6,8 C 83 % 1023,3 hPa 0,0 l/m 0,0 km/h (0 Bft) N 0 0 min 0 W/m 4,1 C 6,8 C 0,0 km/h (0 Bft)
30.05.2020 05:15 6,7 C 83 % 1023,3 hPa 0,0 l/m 0,0 km/h (0 Bft) N 0 0 min 0 W/m 4,0 C 6,7 C 0,0 km/h (0 Bft)
30.05.2020 05:10 6,7 C 83 % 1023,3 hPa 0,0 l/m 0,0 km/h (0 Bft) N 0 0 min 0 W/m 4,0 C 6,7 C 0,0 km/h (0 Bft)
30.05.2020 05:05 6,7 C 83 % 1023,2 hPa 0,0 l/m 0,0 km/h (0 Bft) N 0 0 min 0 W/m 4,0 C 6,7 C 0,0 km/h (0 Bft)
30.05.2020 05:00 6,7 C 82 % 1023,3 hPa 0,0 l/m 0,0 km/h (0 Bft) N 0 0 min 0 W/m 3,8 C 6,7 C 0,0 km/h (0 Bft)
30.05.2020 04:55 6,7 C 82 % 1023,3 hPa 0,0 l/m 0,0 km/h (0 Bft) N 0 0 min 0 W/m 3,8 C 6,7 C 0,0 km/h (0 Bft)
30.05.2020 04:50 6,8 C 82 % 1023,3 hPa 0,0 l/m 0,0 km/h (0 Bft) N 0 0 min 0 W/m 3,9 C 6,8 C 0,0 km/h (0 Bft)
30.05.2020 04:45 6,9 C 81 % 1023,3 hPa 0,0 l/m 0,0 km/h (0 Bft) N 0 0 min 0 W/m 3,9 C 6,9 C 0,0 km/h (0 Bft)
30.05.2020 04:40 6,9 C 81 % 1023,3 hPa 0,0 l/m 0,0 km/h (0 Bft) N 0 0 min 0 W/m 3,9 C 6,9 C 0,0 km/h (0 Bft)
30.05.2020 04:35 7,0 C 80 % 1023,3 hPa 0,0 l/m 0,0 km/h (0 Bft) N 0 0 min 0 W/m 3,8 C 7,0 C 0,0 km/h (0 Bft)
30.05.2020 04:30 7,1 C 80 % 1023,4 hPa 0,0 l/m 0,0 km/h (0 Bft) N 0 0 min 0 W/m 3,9 C 7,1 C 0,0 km/h (0 Bft)
30.05.2020 04:25 7,2 C 79 % 1023,4 hPa 0,0 l/m 0,0 km/h (0 Bft) N 0 0 min 0 W/m 3,8 C 7,2 C 0,0 km/h (0 Bft)
30.05.2020 04:20 7,3 C 79 % 1023,3 hPa 0,0 l/m 0,0 km/h (0 Bft) N 0 0 min 0 W/m 3,9 C 7,3 C 0,0 km/h (0 Bft)
30.05.2020 04:15 7,5 C 78 % 1023,4 hPa 0,0 l/m 0,0 km/h (0 Bft) N 0 0 min 0 W/m 3,9 C 7,5 C 0,0 km/h (0 Bft)
30.05.2020 04:10 7,7 C 78 % 1023,4 hPa 0,0 l/m 0,0 km/h (0 Bft) N 0 0 min 0 W/m 4,1 C 7,7 C 0,0 km/h (0 Bft)
30.05.2020 04:05 7,8 C 78 % 1023,4 hPa 0,0 l/m 0,0 km/h (0 Bft) N 0 0 min 0 W/m 4,2 C 7,8 C 0,0 km/h (0 Bft)
30.05.2020 04:00 7,9 C 77 % 1023,4 hPa 0,0 l/m 0,0 km/h (0 Bft) N 0 0 min 0 W/m 4,1 C 7,9 C 0,0 km/h (0 Bft)
30.05.2020 03:55 8,2 C 76 % 1023,5 hPa 0,0 l/m 0,0 km/h (0 Bft) N 0 0 min 0 W/m 4,2 C 8,2 C 0,0 km/h (0 Bft)
30.05.2020 03:50 8,3 C 76 % 1023,5 hPa 0,0 l/m 0,0 km/h (0 Bft) N 0 0 min 0 W/m 4,3 C 8,3 C 0,0 km/h (0 Bft)
30.05.2020 03:45 8,4 C 75 % 1023,5 hPa 0,0 l/m 0,0 km/h (0 Bft) N 0 0 min 0 W/m 4,2 C 8,4 C 0,0 km/h (0 Bft)
30.05.2020 03:40 8,6 C 74 % 1023,5 hPa 0,0 l/m 0,0 km/h (0 Bft) N 0 0 min 0 W/m 4,2 C 8,6 C 0,0 km/h (0 Bft)
30.05.2020 03:35 8,7 C 73 % 1023,5 hPa 0,0 l/m 0,0 km/h (0 Bft) N 0 0 min 0 W/m 4,1 C 8,7 C 0,0 km/h (0 Bft)
30.05.2020 03:30 8,9 C 73 % 1023,5 hPa 0,0 l/m 0,0 km/h (0 Bft) N 0 0 min 0 W/m 4,3 C 8,9 C 0,0 km/h (0 Bft)
30.05.2020 03:25 9,2 C 72 % 1023,5 hPa 0,0 l/m 0,0 km/h (0 Bft) N 0 0 min 0 W/m 4,4 C 9,2 C 0,0 km/h (0 Bft)
30.05.2020 03:20 9,4 C 71 % 1023,6 hPa 0,0 l/m 0,0 km/h (0 Bft) N 0 0 min 0 W/m 4,4 C 9,4 C 0,0 km/h (0 Bft)
30.05.2020 03:15 9,7 C 70 % 1023,5 hPa 0,0 l/m 0,0 km/h (0 Bft) N 0 0 min 0 W/m 4,5 C 9,7 C 0,0 km/h (0 Bft)
30.05.2020 03:10 10,0 C 69 % 1023,5 hPa 0,0 l/m 0,0 km/h (0 Bft) N 0 0 min 0 W/m 4,6 C 10,0 C 0,0 km/h (0 Bft)
30.05.2020 03:05 10,4 C 68 % 1023,5 hPa 0,0 l/m 0,0 km/h (0 Bft) N 0 0 min 0 W/m 4,8 C 10,4 C 0,0 km/h (0 Bft)
30.05.2020 03:00 10,6 C 67 % 1023,4 hPa 0,0 l/m 0,0 km/h (0 Bft) N 0 0 min 0 W/m 4,7 C 10,6 C 0,0 km/h (0 Bft)
30.05.2020 02:55 10,7 C 66 % 1023,5 hPa 0,0 l/m 0,0 km/h (0 Bft) N 0 0 min 0 W/m 4,6 C 10,7 C 0,0 km/h (0 Bft)
30.05.2020 02:50 10,9 C 64 % 1023,5 hPa 0,0 l/m 0,0 km/h (0 Bft) N 0 0 min 0 W/m 4,4 C 10,9 C 0,0 km/h (0 Bft)
30.05.2020 02:45 11,2 C 64 % 1023,5 hPa 0,0 l/m 0,0 km/h (0 Bft) N 0 0 min 0 W/m 4,6 C 11,2 C 0,0 km/h (0 Bft)
30.05.2020 02:40 11,4 C 62 % 1023,5 hPa 0,0 l/m 0,0 km/h (0 Bft) N 0 0 min 0 W/m 4,4 C 11,4 C 0,0 km/h (0 Bft)
30.05.2020 02:35 11,6 C 62 % 1023,5 hPa 0,0 l/m 0,0 km/h (0 Bft) N 0 0 min 0 W/m 4,6 C 11,6 C 0,0 km/h (0 Bft)
30.05.2020 02:30 11,8 C 61 % 1023,6 hPa 0,0 l/m 0,0 km/h (0 Bft) N 0 0 min 0 W/m 4,5 C 11,8 C 0,0 km/h (0 Bft)
30.05.2020 02:25 12,0 C 60 % 1023,6 hPa 0,0 l/m 0,0 km/h (0 Bft) N 0 0 min 0 W/m 4,5 C 12,0 C 0,0 km/h (0 Bft)
30.05.2020 02:20 12,2 C 59 % 1023,6 hPa 0,0 l/m 0,0 km/h (0 Bft) N 0 0 min 0 W/m 4,4 C 12,2 C 0,0 km/h (0 Bft)
30.05.2020 02:15 12,4 C 58 % 1023,6 hPa 0,0 l/m 0,0 km/h (0 Bft) N 0 0 min 0 W/m 4,4 C 12,4 C 0,0 km/h (0 Bft)
30.05.2020 02:10 12,7 C 56 % 1023,6 hPa 0,0 l/m 0,0 km/h (0 Bft) O 90 0 min 0 W/m 4,2 C 12,7 C 3,2 km/h (1 Bft)
30.05.2020 02:05 12,9 C 55 % 1023,5 hPa 0,0 l/m 0,0 km/h (0 Bft) N 0 0 min 0 W/m 4,1 C 12,9 C 0,0 km/h (0 Bft)
30.05.2020 02:00 13,1 C 55 % 1023,5 hPa 0,0 l/m 0,0 km/h (0 Bft) O 90 0 min 0 W/m 4,3 C 13,1 C 4,8 km/h (1 Bft)
30.05.2020 01:55 13,1 C 54 % 1023,5 hPa 0,0 l/m 0,0 km/h (0 Bft) N 0 0 min 0 W/m 4,0 C 13,1 C 0,0 km/h (0 Bft)
30.05.2020 01:50 13,1 C 55 % 1023,6 hPa 0,0 l/m 0,0 km/h (0 Bft) N 0 0 min 0 W/m 4,3 C 13,1 C 0,0 km/h (0 Bft)
30.05.2020 01:45 13,1 C 55 % 1023,6 hPa 0,0 l/m 0,0 km/h (0 Bft) N 0 0 min 0 W/m 4,3 C 13,1 C 0,0 km/h (0 Bft)
30.05.2020 01:40 13,2 C 54 % 1023,6 hPa 0,0 l/m 0,0 km/h (0 Bft) N 0 0 min 0 W/m 4,1 C 13,2 C 0,0 km/h (0 Bft)
30.05.2020 01:35 13,1 C 54 % 1023,6 hPa 0,0 l/m 0,0 km/h (0 Bft) N 0 0 min 0 W/m 4,0 C 13,1 C 0,0 km/h (0 Bft)
30.05.2020 01:30 13,2 C 54 % 1023,6 hPa 0,0 l/m 0,0 km/h (0 Bft) N 0 0 min 0 W/m 4,1 C 13,2 C 0,0 km/h (0 Bft)
30.05.2020 01:25 13,3 C 54 % 1023,6 hPa 0,0 l/m 0,0 km/h (0 Bft) N 0 0 min 0 W/m 4,2 C 13,3 C 0,0 km/h (0 Bft)
30.05.2020 01:20 13,2 C 54 % 1023,5 hPa 0,0 l/m 0,0 km/h (0 Bft) N 0 0 min 0 W/m 4,1 C 13,2 C 0,0 km/h (0 Bft)
30.05.2020 01:15 13,1 C 54 % 1023,5 hPa 0,0 l/m 0,0 km/h (0 Bft) N 0 0 min 0 W/m 4,0 C 13,1 C 6,4 km/h (2 Bft)
30.05.2020 01:10 12,9 C 55 % 1023,5 hPa 0,0 l/m 0,0 km/h (0 Bft) O 90 0 min 0 W/m 4,1 C 12,9 C 6,4 km/h (2 Bft)
30.05.2020 01:05 12,8 C 56 % 1023,5 hPa 0,0 l/m 0,0 km/h (0 Bft) N 0 0 min 0 W/m 4,2 C 12,8 C 0,0 km/h (0 Bft)
30.05.2020 01:00 12,7 C 56 % 1023,5 hPa 0,0 l/m 0,0 km/h (0 Bft) N 0 0 min 0 W/m 4,2 C 12,7 C 0,0 km/h (0 Bft)
30.05.2020 00:55 12,6 C 57 % 1023,5 hPa 0,0 l/m 0,0 km/h (0 Bft) N 0 0 min 0 W/m 4,3 C 12,6 C 0,0 km/h (0 Bft)
30.05.2020 00:50 12,6 C 58 % 1023,5 hPa 0,0 l/m 0,0 km/h (0 Bft) N 0 0 min 0 W/m 4,6 C 12,6 C 0,0 km/h (0 Bft)
30.05.2020 00:45 12,7 C 57 % 1023,4 hPa 0,0 l/m 0,0 km/h (0 Bft) N 0 0 min 0 W/m 4,4 C 12,7 C 0,0 km/h (0 Bft)
30.05.2020 00:40 12,7 C 57 % 1023,5 hPa 0,0 l/m 0,0 km/h (0 Bft) N 0 0 min 0 W/m 4,4 C 12,7 C 0,0 km/h (0 Bft)
30.05.2020 00:35 12,8 C 57 % 1023,5 hPa 0,0 l/m 0,0 km/h (0 Bft) N 0 0 min 0 W/m 4,5 C 12,8 C 0,0 km/h (0 Bft)
30.05.2020 00:30 12,8 C 58 % 1023,5 hPa 0,0 l/m 0,0 km/h (0 Bft) N 0 0 min 0 W/m 4,7 C 12,8 C 0,0 km/h (0 Bft)
30.05.2020 00:25 12,7 C 59 % 1023,5 hPa 0,0 l/m 0,0 km/h (0 Bft) N 0 0 min 0 W/m 4,9 C 12,7 C 0,0 km/h (0 Bft)
30.05.2020 00:20 12,4 C 59 % 1023,5 hPa 0,0 l/m 0,0 km/h (0 Bft) N 0 0 min 0 W/m 4,6 C 12,4 C 0,0 km/h (0 Bft)
30.05.2020 00:15 12,1 C 60 % 1023,5 hPa 0,0 l/m 0,0 km/h (0 Bft) N 0 0 min 0 W/m 4,6 C 12,1 C 0,0 km/h (0 Bft)
30.05.2020 00:10 11,6 C 63 % 1023,5 hPa 0,0 l/m 0,0 km/h (0 Bft) N 0 0 min 0 W/m 4,8 C 11,6 C 0,0 km/h (0 Bft)
30.05.2020 00:05 11,2 C 66 % 1023,5 hPa 0,0 l/m 0,0 km/h (0 Bft) N 0 0 min 0 W/m 5,1 C 11,2 C 0,0 km/h (0 Bft)
30.05.2020 00:00 11,3 C 66 % 1023,6 hPa 0,0 l/m 0,0 km/h (0 Bft) N 0 0 min 0 W/m 5,2 C 11,3 C 0,0 km/h (0 Bft)
29.05.2020 23:55 11,6 C 65 % 1023,6 hPa 0,0 l/m 0,0 km/h (0 Bft) N 0 0 min 0 W/m 5,2 C 11,6 C 0,0 km/h (0 Bft)
29.05.2020 23:50 11,9 C 63 % 1023,5 hPa 0,0 l/m 0,0 km/h (0 Bft) N 0 0 min 0 W/m 5,1 C 11,9 C 0,0 km/h (0 Bft)
29.05.2020 23:45 12,3 C 61 % 1023,5 hPa 0,0 l/m 0,0 km/h (0 Bft) N 0 0 min 0 W/m 5,0 C 12,3 C 0,0 km/h (0 Bft)
29.05.2020 23:40 12,8 C 61 % 1023,5 hPa 0,0 l/m 0,0 km/h (0 Bft) N 0 0 min 0 W/m 5,5 C 12,8 C 0,0 km/h (0 Bft)
29.05.2020 23:35 13,2 C 59 % 1023,5 hPa 0,0 l/m 0,0 km/h (0 Bft) N 0 0 min 0 W/m 5,4 C 13,2 C 0,0 km/h (0 Bft)
29.05.2020 23:30 13,5 C 58 % 1023,5 hPa 0,0 l/m 0,0 km/h (0 Bft) N 0 0 min 0 W/m 5,4 C 13,5 C 0,0 km/h (0 Bft)
29.05.2020 23:25 13,8 C 56 % 1023,5 hPa 0,0 l/m 0,0 km/h (0 Bft) N 0 0 min 0 W/m 5,2 C 13,8 C 0,0 km/h (0 Bft)
29.05.2020 23:20 13,9 C 54 % 1023,5 hPa 0,0 l/m 0,0 km/h (0 Bft) N 0 0 min 0 W/m 4,7 C 13,9 C 0,0 km/h (0 Bft)
29.05.2020 23:15 14,0 C 53 % 1023,4 hPa 0,0 l/m 0,0 km/h (0 Bft) N 0 0 min 0 W/m 4,6 C 14,0 C 0,0 km/h (0 Bft)
29.05.2020 23:10 14,1 C 52 % 1023,4 hPa 0,0 l/m 0,0 km/h (0 Bft) N 0 0 min 0 W/m 4,4 C 14,1 C 0,0 km/h (0 Bft)
29.05.2020 23:05 14,2 C 52 % 1023,3 hPa 0,0 l/m 0,0 km/h (0 Bft) N 0 0 min 0 W/m 4,5 C 14,2 C 0,0 km/h (0 Bft)
29.05.2020 23:00 14,3 C 53 % 1023,4 hPa 0,0 l/m 0,0 km/h (0 Bft) S 171 0 min 0 W/m 4,9 C 14,3 C 0,0 km/h (0 Bft)
29.05.2020 22:55 14,4 C 52 % 1023,3 hPa 0,0 l/m 0,0 km/h (0 Bft) S 171 0 min 0 W/m 4,7 C 14,4 C 0,0 km/h (0 Bft)
29.05.2020 22:50 14,6 C 50 % 1023,4 hPa 0,0 l/m 0,0 km/h (0 Bft) S 171 0 min 0 W/m 4,3 C 14,6 C 0,0 km/h (0 Bft)
29.05.2020 22:45 14,7 C 50 % 1023,3 hPa 0,0 l/m 0,0 km/h (0 Bft) S 171 0 min 0 W/m 4,4 C 14,7 C 0,0 km/h (0 Bft)
29.05.2020 22:40 14,8 C 49 % 1023,3 hPa 0,0 l/m 0,0 km/h (0 Bft) S 171 0 min 0 W/m 4,2 C 14,8 C 0,0 km/h (0 Bft)
29.05.2020 22:35 14,9 C 49 % 1023,3 hPa 0,0 l/m 0,0 km/h (0 Bft) S 171 0 min 0 W/m 4,3 C 14,9 C 0,0 km/h (0 Bft)
29.05.2020 22:30 15,1 C 49 % 1023,3 hPa 0,0 l/m 0,0 km/h (0 Bft) S 171 0 min 0 W/m 4,5 C 15,1 C 0,0 km/h (0 Bft)
29.05.2020 22:25 15,2 C 48 % 1023,3 hPa 0,0 l/m 0,0 km/h (0 Bft) S 171 0 min 0 W/m 4,3 C 15,2 C 0,0 km/h (0 Bft)
29.05.2020 22:20 15,3 C 48 % 1023,3 hPa 0,0 l/m 0,0 km/h (0 Bft) S 171 0 min 0 W/m 4,4 C 15,3 C 0,0 km/h (0 Bft)
29.05.2020 22:15 15,4 C 47 % 1023,3 hPa 0,0 l/m 0,0 km/h (0 Bft) S 171 0 min 0 W/m 4,1 C 15,4 C 0,0 km/h (0 Bft)
29.05.2020 22:10 15,7 C 47 % 1023,3 hPa 0,0 l/m 0,0 km/h (0 Bft) S 171 0 min 0 W/m 4,4 C 15,7 C 0,0 km/h (0 Bft)
29.05.2020 22:05 15,8 C 46 % 1023,3 hPa 0,0 l/m 0,0 km/h (0 Bft) S 171 0 min 0 W/m 4,2 C 15,8 C 0,0 km/h (0 Bft)
29.05.2020 22:00 15,9 C 46 % 1023,2 hPa 0,0 l/m 0,0 km/h (0 Bft) O-SO 106 0 min 0 W/m 4,3 C 15,9 C 0,0 km/h (0 Bft)
29.05.2020 21:55 16,1 C 45 % 1023,2 hPa 0,0 l/m 0,0 km/h (0 Bft) O-SO 106 0 min 0 W/m 4,2 C 16,1 C 0,0 km/h (0 Bft)
29.05.2020 21:50 16,1 C 45 % 1023,2 hPa 0,0 l/m 0,0 km/h (0 Bft) O-SO 106 0 min 0 W/m 4,2 C 16,1 C 0,0 km/h (0 Bft)
29.05.2020 21:45 16,2 C 45 % 1023,1 hPa 0,0 l/m 0,0 km/h (0 Bft) O-SO 106 0 min 0 W/m 4,3 C 16,2 C 0,0 km/h (0 Bft)
29.05.2020 21:40 16,4 C 44 % 1023,1 hPa 0,0 l/m 0,0 km/h (0 Bft) O-SO 106 0 min 0 W/m 4,1 C 16,4 C 0,0 km/h (0 Bft)
29.05.2020 21:35 16,6 C 45 % 1023,1 hPa 0,0 l/m 0,0 km/h (0 Bft) O-SO 106 0 min 0 W/m 4,6 C 16,6 C 0,0 km/h (0 Bft)
29.05.2020 21:30 16,8 C 44 % 1023,1 hPa 0,0 l/m 0,0 km/h (0 Bft) O-SO 106 0 min 0 W/m 4,5 C 16,8 C 0,0 km/h (0 Bft)
29.05.2020 21:25 17,0 C 44 % 1023,1 hPa 0,0 l/m 0,0 km/h (0 Bft) O-SO 107 0 min 0 W/m 4,7 C 17,0 C 0,0 km/h (0 Bft)
29.05.2020 21:20 17,3 C 44 % 1023,0 hPa 0,0 l/m 0,0 km/h (0 Bft) O-SO 107 0 min 5 W/m 4,9 C 17,3 C 0,0 km/h (0 Bft)
29.05.2020 21:15 17,5 C 43 % 1023,0 hPa 0,0 l/m 0,0 km/h (0 Bft) O-SO 107 0 min 7 W/m 4,8 C 17,5 C 0,0 km/h (0 Bft)
29.05.2020 21:10 17,7 C 43 % 1023,0 hPa 0,0 l/m 0,0 km/h (0 Bft) O-SO 106 0 min 9 W/m 5,0 C 17,7 C 0,0 km/h (0 Bft)
29.05.2020 21:05 17,9 C 42 % 1022,9 hPa 0,0 l/m 0,0 km/h (0 Bft) O-SO 107 0 min 11 W/m 4,8 C 17,9 C 0,0 km/h (0 Bft)
29.05.2020 21:00 18,1 C 42 % 1022,9 hPa 0,0 l/m 0,0 km/h (0 Bft) NO 38 0 min 12 W/m 5,0 C 18,1 C 0,0 km/h (0 Bft)
29.05.2020 20:55 18,2 C 42 % 1022,9 hPa 0,0 l/m 0,0 km/h (0 Bft) N-NO 26 0 min 14 W/m 5,1 C 18,2 C 1,6 km/h (1 Bft)
29.05.2020 20:50 18,4 C 43 % 1022,9 hPa 0,0 l/m 0,0 km/h (0 Bft) N-NO 26 0 min 16 W/m 5,6 C 18,4 C 0,0 km/h (0 Bft)
29.05.2020 20:45 18,6 C 42 % 1022,9 hPa 0,0 l/m 0,0 km/h (0 Bft) N-NO 26 0 min 19 W/m 5,4 C 18,6 C 1,6 km/h (1 Bft)
29.05.2020 20:40 18,8 C 43 % 1022,9 hPa 0,0 l/m 0,0 km/h (0 Bft) N-NO 26 0 min 21 W/m 6,0 C 18,8 C 0,0 km/h (0 Bft)
29.05.2020 20:35 18,9 C 41 % 1023,0 hPa 0,0 l/m 0,0 km/h (0 Bft) N-NO 26 0 min 23 W/m 5,4 C 18,9 C 0,0 km/h (0 Bft)
29.05.2020 20:30 19,2 C 41 % 1023,0 hPa 0,0 l/m 0,0 km/h (0 Bft) NO 35 0 min 25 W/m 5,6 C 19,2 C 1,6 km/h (1 Bft)
29.05.2020 20:25 19,3 C 40 % 1023,0 hPa 0,0 l/m 0,0 km/h (0 Bft) NO 35 0 min 28 W/m 5,4 C 19,3 C 1,6 km/h (1 Bft)
29.05.2020 20:20 19,5 C 40 % 1023,0 hPa 0,0 l/m 0,0 km/h (0 Bft) NO 35 0 min 30 W/m 5,5 C 19,5 C 0,0 km/h (0 Bft)
29.05.2020 20:15 19,7 C 39 % 1022,9 hPa 0,0 l/m 0,0 km/h (0 Bft) NO 34 0 min 54 W/m 5,4 C 19,7 C 1,6 km/h (1 Bft)
29.05.2020 20:10 19,9 C 38 % 1023,0 hPa 0,0 l/m 0,0 km/h (0 Bft) NO 56 0 min 88 W/m 5,2 C 19,9 C 1,6 km/h (1 Bft)
29.05.2020 20:05 20,1 C 38 % 1023,0 hPa 0,0 l/m 0,0 km/h (0 Bft) O-NO 57 0 min 109 W/m 5,3 C 20,1 C 0,0 km/h (0 Bft)
29.05.2020 20:00 20,2 C 37 % 1023,0 hPa 0,0 l/m 0,0 km/h (0 Bft) O-NO 59 0 min 125 W/m 5,0 C 20,2 C 1,6 km/h (1 Bft)
29.05.2020 19:55 20,5 C 36 % 1023,0 hPa 0,0 l/m 0,0 km/h (0 Bft) O-NO 60 0 min 139 W/m 4,9 C 20,5 C 1,6 km/h (1 Bft)
29.05.2020 19:50 20,7 C 37 % 1022,9 hPa 0,0 l/m 0,0 km/h (0 Bft) O-NO 62 5 min 153 W/m 5,5 C 20,7 C 1,6 km/h (1 Bft)
29.05.2020 19:45 20,8 C 37 % 1022,9 hPa 0,0 l/m 0,0 km/h (0 Bft) O-NO 62 5 min 165 W/m 5,6 C 20,8 C 1,6 km/h (1 Bft)
29.05.2020 19:40 20,9 C 37 % 1023,0 hPa 0,0 l/m 0,0 km/h (0 Bft) NO 37 5 min 174 W/m 5,7 C 20,9 C 0,0 km/h (0 Bft)
29.05.2020 19:35 21,1 C 36 % 1023,0 hPa 0,0 l/m 0,0 km/h (0 Bft) NO 37 5 min 193 W/m 5,4 C 21,1 C 1,6 km/h (1 Bft)
29.05.2020 19:30 21,2 C 36 % 1023,0 hPa 0,0 l/m 0,0 km/h (0 Bft) NO 37 5 min 209 W/m 5,5 C 21,2 C 1,6 km/h (1 Bft)
29.05.2020 19:25 21,4 C 35 % 1022,9 hPa 0,0 l/m 0,0 km/h (0 Bft) NO 37 5 min 223 W/m 5,3 C 21,4 C 1,6 km/h (1 Bft)
29.05.2020 19:20 21,7 C 34 % 1022,9 hPa 0,0 l/m 0,1 km/h (0 Bft) NO 37 5 min 214 W/m 5,2 C 21,7 C 1,6 km/h (1 Bft)
29.05.2020 19:15 21,8 C 34 % 1023,0 hPa 0,0 l/m 0,0 km/h (0 Bft) W 265 5 min 244 W/m 5,2 C 21,8 C 1,6 km/h (1 Bft)
29.05.2020 19:10 21,9 C 33 % 1023,0 hPa 0,0 l/m 0,0 km/h (0 Bft) W 265 5 min 257 W/m 4,9 C 21,9 C 1,6 km/h (1 Bft)
29.05.2020 19:05 21,9 C 34 % 1023,0 hPa 0,0 l/m 0,0 km/h (0 Bft) W 265 5 min 272 W/m 5,3 C 21,9 C 0,0 km/h (0 Bft)
29.05.2020 19:00 21,9 C 34 % 1023,0 hPa 0,0 l/m 0,0 km/h (0 Bft) W 265 5 min 287 W/m 5,3 C 21,9 C 1,6 km/h (1 Bft)
29.05.2020 18:55 21,9 C 33 % 1023,0 hPa 0,0 l/m 0,1 km/h (0 Bft) W 265 5 min 302 W/m 4,9 C 21,9 C 1,6 km/h (1 Bft)
29.05.2020 18:50 22,0 C 33 % 1023,0 hPa 0,0 l/m 0,0 km/h (0 Bft) N 360 5 min 313 W/m 5,0 C 22,0 C 1,6 km/h (1 Bft)
29.05.2020 18:45 22,2 C 32 % 1023,0 hPa 0,0 l/m 0,3 km/h (0 Bft) NO 40 5 min 320 W/m 4,7 C 22,2 C 4,8 km/h (1 Bft)
29.05.2020 18:40 22,3 C 31 % 1023,1 hPa 0,0 l/m 1,1 km/h (1 Bft) W-NW 294 5 min 322 W/m 4,4 C 22,3 C 8,0 km/h (2 Bft)
29.05.2020 18:35 22,3 C 31 % 1023,1 hPa 0,0 l/m 0,1 km/h (0 Bft) W-NW 288 5 min 320 W/m 4,4 C 22,3 C 4,8 km/h (1 Bft)
29.05.2020 18:30 22,4 C 31 % 1023,1 hPa 0,0 l/m 0,0 km/h (0 Bft) NW 317 5 min 295 W/m 4,4 C 22,4 C 1,6 km/h (1 Bft)
29.05.2020 18:25 22,6 C 30 % 1023,2 hPa 0,0 l/m 0,0 km/h (0 Bft) NW 317 5 min 274 W/m 4,1 C 22,6 C 1,6 km/h (1 Bft)
29.05.2020 18:20 22,6 C 31 % 1023,2 hPa 0,0 l/m 0,0 km/h (0 Bft) NW 317 5 min 288 W/m 4,6 C 22,6 C 1,6 km/h (1 Bft)
29.05.2020 18:15 22,5 C 30 % 1023,2 hPa 0,0 l/m 0,0 km/h (0 Bft) NW 317 5 min 330 W/m 4,1 C 22,5 C 1,6 km/h (1 Bft)
29.05.2020 18:10 22,5 C 30 % 1023,3 hPa 0,0 l/m 0,9 km/h (0 Bft) NW 317 5 min 346 W/m 4,1 C 22,5 C 8,0 km/h (2 Bft)
29.05.2020 18:05 22,7 C 29 % 1023,4 hPa 0,0 l/m 1,7 km/h (1 Bft) NW 315 5 min 364 W/m 3,7 C 22,7 C 17,7 km/h (3 Bft)
29.05.2020 18:00 22,8 C 30 % 1023,3 hPa 0,0 l/m 0,0 km/h (0 Bft) NW 310 5 min 410 W/m 4,3 C 22,8 C 1,6 km/h (1 Bft)
29.05.2020 17:55 22,8 C 30 % 1023,4 hPa 0,0 l/m 0,0 km/h (0 Bft) NW 313 5 min 446 W/m 4,3 C 22,8 C 1,6 km/h (1 Bft)
29.05.2020 17:50 22,8 C 30 % 1023,4 hPa 0,0 l/m 0,6 km/h (0 Bft) NW 313 5 min 478 W/m 4,3 C 22,8 C 8,0 km/h (2 Bft)
29.05.2020 17:45 22,8 C 30 % 1023,5 hPa 0,0 l/m 0,0 km/h (0 Bft) W 272 5 min 494 W/m 4,3 C 22,8 C 1,6 km/h (1 Bft)
29.05.2020 17:40 22,7 C 30 % 1023,5 hPa 0,0 l/m 0,7 km/h (0 Bft) W 273 5 min 506 W/m 4,2 C 22,7 C 16,1 km/h (3 Bft)
29.05.2020 17:35 22,7 C 28 % 1023,6 hPa 0,0 l/m 1,7 km/h (1 Bft) NW 318 5 min 519 W/m 3,3 C 22,7 C 12,9 km/h (3 Bft)
29.05.2020 17:30 22,8 C 28 % 1023,6 hPa 0,0 l/m 0,1 km/h (0 Bft) NW 319 5 min 533 W/m 3,3 C 22,8 C 1,6 km/h (1 Bft)
29.05.2020 17:25 22,9 C 28 % 1023,6 hPa 0,0 l/m 0,0 km/h (0 Bft) N-NW 328 5 min 545 W/m 3,4 C 22,9 C 1,6 km/h (1 Bft)
29.05.2020 17:20 22,8 C 29 % 1023,7 hPa 0,0 l/m 0,4 km/h (0 Bft) N-NW 327 5 min 555 W/m 3,8 C 22,8 C 8,0 km/h (2 Bft)
29.05.2020 17:15 22,8 C 30 % 1023,7 hPa 0,0 l/m 0,1 km/h (0 Bft) O-SO 115 5 min 571 W/m 4,3 C 22,8 C 1,6 km/h (1 Bft)
29.05.2020 17:10 22,8 C 28 % 1023,7 hPa 0,0 l/m 0,5 km/h (0 Bft) W-NW 291 5 min 585 W/m 3,3 C 22,8 C 8,0 km/h (2 Bft)
29.05.2020 17:05 22,8 C 29 % 1023,8 hPa 0,0 l/m 0,1 km/h (0 Bft) SO 142 5 min 592 W/m 3,8 C 22,8 C 1,6 km/h (1 Bft)
29.05.2020 17:00 22,8 C 29 % 1023,9 hPa 0,0 l/m 0,0 km/h (0 Bft) W-NW 297 5 min 610 W/m 3,8 C 22,8 C 0,0 km/h (0 Bft)
29.05.2020 16:55 22,9 C 27 % 1023,9 hPa 0,0 l/m 0,0 km/h (0 Bft) W-NW 296 5 min 621 W/m 2,9 C 22,9 C 1,6 km/h (1 Bft)
29.05.2020 16:50 22,8 C 28 % 1023,9 hPa 0,0 l/m 0,0 km/h (0 Bft) W-NW 297 5 min 626 W/m 3,3 C 22,8 C 1,6 km/h (1 Bft)
29.05.2020 16:45 22,8 C 26 % 1024,0 hPa 0,0 l/m 0,3 km/h (0 Bft) W-NW 297 5 min 622 W/m 2,3 C 22,8 C 6,4 km/h (2 Bft)
29.05.2020 16:40 22,7 C 27 % 1023,9 hPa 0,0 l/m 0,4 km/h (0 Bft) NW 321 5 min 615 W/m 2,7 C 22,7 C 8,0 km/h (2 Bft)
29.05.2020 16:35 22,6 C 27 % 1024,0 hPa 0,0 l/m 0,5 km/h (0 Bft) NW 315 5 min 610 W/m 2,7 C 22,6 C 11,3 km/h (2 Bft)
29.05.2020 16:30 22,3 C 27 % 1024,0 hPa 0,0 l/m 0,2 km/h (0 Bft) O-SO 115 5 min 598 W/m 2,4 C 22,3 C 3,2 km/h (1 Bft)
29.05.2020 16:25 22,4 C 26 % 1024,0 hPa 0,0 l/m 1,0 km/h (0 Bft) O-SO 115 5 min 587 W/m 2,0 C 22,4 C 6,4 km/h (2 Bft)
29.05.2020 16:20 22,5 C 28 % 1024,2 hPa 0,0 l/m 2,0 km/h (1 Bft) N-NO 30 5 min 578 W/m 3,1 C 22,5 C 8,0 km/h (2 Bft)
29.05.2020 16:15 22,7 C 27 % 1024,2 hPa 0,0 l/m 0,1 km/h (0 Bft) SO 141 5 min 577 W/m 2,7 C 22,7 C 1,6 km/h (1 Bft)
29.05.2020 16:10 22,6 C 27 % 1024,2 hPa 0,0 l/m 0,5 km/h (0 Bft) W 267 5 min 578 W/m 2,7 C 22,6 C 4,8 km/h (1 Bft)
29.05.2020 16:05 22,4 C 27 % 1024,2 hPa 0,0 l/m 0,0 km/h (0 Bft) NW 323 5 min 585 W/m 2,5 C 22,4 C 1,6 km/h (1 Bft)
29.05.2020 16:00 22,3 C 28 % 1024,3 hPa 0,0 l/m 0,5 km/h (0 Bft) NW 321 5 min 605 W/m 2,9 C 22,3 C 8,0 km/h (2 Bft)
_ Min-Zeit 04:55 16:25 15:00 - 16:05 - - - - 16:25 04:55 17:00
Minimum _ 6,7 C 26 % 1021,5 hPa - 0,0 km/h (0 Bft) - - - - 2,0 C 6,7 C 0,0 km/h (0 Bft)
_ Max-Zeit 16:55 05:50 16:00 16:00 14:20 - - 16:00 14:15 08:50 16:55 13:20
Maximum _ 22,9 C 84 % 1024,3 hPa 0,0 l/m 8,4 km/h
O-SO (2 Bft)
- - 5 min 981 W/m 8,4 C 22,9 C 24,1 km/h
NW (4 Bft)
Durchschnitt _ 16,3 C 49 % 1023,3 hPa #0,0 l/m 0,6 km/h (0 Bft) NO - #6:45 h 540 W/m 4,5 C 16,3 C 4,5 km/h (1 Bft)